Tracking 17149 objects as of 22-May-2015
HD Live streaming from Space Station

COSMOS 1823 DEB


COSMOS 1823 DEB is no longer on orbit
COSMOS 1823 DEB is classified as:


NORAD ID: 19149
Int'l Code: 1987-020BH
Perigee: N/A
Apogee: N/A
Inclination: N/A
Period: N/A
Semi major axis: N/A
RCS: N/A
Launch date: February 20, 1987
Source: Commonwealth of Independent States (former USSR) (CIS)
Decay date: 1991-01-17

Note: This is SATELLITE DEBRIS
Your satellite tracking list
Your tracking list is empty





NASA's NSSDC Master Catalog

Two Line Element Set (TLE):
1 19149U 87020 BH 91015.52921055  .09713052 +00000-0 +0638201 0  9992
2 19149 073.2779 350.8564 0058756 209.7992 150.2021 15.06115332133455

Source of the keplerian elements: AFSPC

N2YO: 448